Location: G�yn�k
(36.6721°N, 30.5542°E)
Time: 08:49:11
(UTC+00:00)

Cosmos 2360 Rocket - Pass Details

Date: 07 June 2020
Orbit: 832 x 846 km, 71.0° (Epoch: 06 July)

Event Time Altitude Azimuth Distance (km) Brightness Sun altitude
Exits shadow 00:43:46 34° 220° (SW) 1,355 2.7 -18.7°
Maximum altitude 00:46:15 68° 293° (WNW) 901 2.2 -18.4°
Drops below altitude 10° 00:51:52 10° 16° (NNE) 2,457 5.6 -17.6°
Sets 00:54:21 0° 20° (NNE) 3,397 6.6 -17.3°
